This is the latest recevied weather packets stored in our database for station/object KE5OYL. If no packets are shown the sender has not sent any weather packets the latest 10 day(s).
| Time | Temp. | Humidity | Pressure | Rain* | Wind** | Luminosity | Snow |
|---|---|---|---|---|---|---|---|
| 1777571939 | 15.56° C | 95% | 1012.8 hPa | 0 mm | - | 192 W/m² | - |
| 1777571634 | 15.56° C | 95% | 1013.1 hPa | 0 mm | - | 150 W/m² | - |
| 1777571331 | 15.56° C | 95% | 1013 hPa | 0 mm | - | 140 W/m² | - |
| 1777571027 | 15.56° C | 95% | 1013.5 hPa | 0 mm | - | 106 W/m² | - |
| 1777570723 | 16.11° C | 95% | 1014 hPa | 0 mm | - | 74 W/m² | - |
| 1777570420 | 16.11° C | 95% | 1014.5 hPa | 1.78 mm | - | 71 W/m² | - |
| 1777570116 | 16.11° C | 95% | 1014.9 hPa | 1.78 mm | - | 92 W/m² | - |
| 1777569812 | 16.11° C | 94% | 1015.3 hPa | 0 mm | - | 120 W/m² | - |
| 1777569508 | 16.11° C | 94% | 1016 hPa | 1.27 mm | - | 83 W/m² | - |
| 1777569205 | 16.11° C | 94% | 1016.6 hPa | 1.78 mm | - | 106 W/m² | - |
| 1777568901 | 16.11° C | 94% | 1016.6 hPa | 1.78 mm | - | 128 W/m² | - |
| 1777568598 | 16.11° C | 94% | 1016.3 hPa | 0 mm | - | 128 W/m² | - |
| 1777568295 | 16.11° C | 94% | 1016.7 hPa | 1.27 mm | - | 123 W/m² | - |
| 1777567991 | 16.11° C | 94% | 1016.9 hPa | 1.27 mm | - | 104 W/m² | - |
| 1777567689 | 15.56° C | 94% | 1016.8 hPa | 0 mm | - | 107 W/m² | - |
| 1777567385 | 16.11° C | 93% | 1016.9 hPa | 1.78 mm | - | 124 W/m² | - |
| 1777567083 | 15.56° C | 93% | 1016.6 hPa | 1.78 mm | - | 133 W/m² | - |
| 1777566781 | 15.56° C | 94% | 1016.6 hPa | 0 mm | - | 67 W/m² | - |
| 1777566478 | 15.56° C | 94% | 1017 hPa | 0 mm | - | 48 W/m² | - |
| 1777566176 | 15.56° C | 94% | 1016.9 hPa | 0 mm | - | 61 W/m² | - |
| 1777565871 | 15.56° C | 94% | 1016.4 hPa | 0 mm | - | 111 W/m² | - |
| 1777565567 | 15.56° C | 93% | 1016.4 hPa | 0 mm | - | 106 W/m² | - |
| 1777565264 | 15.56° C | 93% | 1016.2 hPa | 0 mm | - | 71 W/m² | - |
| 1777564961 | 16.11° C | 93% | 1016.4 hPa | 0 mm | - | 53 W/m² | - |
| 1777564656 | 16.11° C | 92% | 1016.4 hPa | 0 mm | - | 75 W/m² | - |
* Rain latest hour (hover to see other rain measurements)
** Current wind speed in m/s (hover to see current wind gust speed)